| time (UTC) | temp F | wind direction | speed MPH | gust MPH | rain 1hr in | rain 24hr in | rain mn in | humidity % | barometer mb |
| 20260903153931 | 78 | 65 | 2.0 | 5.0 | 0.00 | 0.00 | 0.00 | 27 | 1020.7 |
| 20260903153424 | 79 | 96 | 1.0 | 5.0 | 0.00 | 0.00 | 0.00 | 26 | 1020.7 |
| 20260903153018 | 78 | 323 | 0.0 | 2.0 | 0.00 | 0.00 | 0.00 | 25 | 1021.2 |
| 20260903152412 | 78 | 293 | 1.0 | 3.0 | 0.00 | 0.00 | 0.00 | 26 | 1020.6 |
| 20260903151907 | 78 | 101 | 1.0 | 3.0 | 0.00 | 0.00 | 0.00 | 28 | 1020.6 |
| 20260903151523 | 77 | 144 | 1.0 | 4.0 | 0.00 | 0.00 | 0.00 | 29 | 1021.1 |
| 20260903151400 | 78 | 142 | 1.0 | 3.0 | 0.00 | 0.00 | 0.00 | 29 | 1020.7 |
| 20260903150855 | 78 | 86 | 1.0 | 3.0 | 0.00 | 0.00 | 0.00 | 28 | 1020.7 |
| 20260903150348 | 77 | 115 | 1.0 | 2.0 | 0.00 | 0.00 | 0.00 | 29 | 1020.7 |
| 20260903150004 | 76 | 116 | 0.0 | 4.0 | 0.00 | 0.00 | 0.00 | 29 | 1021.1 |
| 20260903145841 | 77 | 120 | 1.0 | 3.0 | 0.00 | 0.00 | 0.00 | 30 | 1020.7 |
| 20260903145335 | 76 | 146 | 0.0 | 3.0 | 0.00 | 0.00 | 0.00 | 32 | 1020.7 |
| 20260903144830 | 76 | 143 | 0.0 | 2.0 | 0.00 | 0.00 | 0.00 | 31 | 1020.7 |
| 20260903144510 | 74 | 122 | 0.0 | 2.0 | 0.00 | 0.00 | 0.00 | 33 | 1021.1 |
| 20260903144325 | 74 | 120 | 0.0 | 2.0 | 0.00 | 0.00 | 0.00 | 32 | 1020.7 |
| 20260903143818 | 74 | 116 | 0.0 | 2.0 | 0.00 | 0.00 | 0.00 | 31 | 1020.7 |
| 20260903143312 | 73 | 116 | 0.0 | 2.0 | 0.00 | 0.00 | 0.00 | 35 | 1020.7 |
| 20260903143015 | 72 | 129 | 0.0 | 2.0 | 0.00 | 0.00 | 0.00 | 34 | 1021.3 |
| 20260903142806 | 73 | 127 | 0.0 | 2.0 | 0.00 | 0.00 | 0.00 | 36 | 1020.7 |
| 20260903142306 | 72 | 119 | 0.0 | 2.0 | 0.00 | 0.00 | 0.00 | 39 | 1020.7 |
| 20260903141755 | 71 | 119 | 0.0 | 2.0 | 0.00 | 0.00 | 0.00 | 39 | 1020.6 |
| 20260903141522 | 71 | 126 | 0.0 | 2.0 | 0.00 | 0.00 | 0.00 | 39 | 1021.4 |
| 20260903141249 | 71 | 129 | 0.0 | 2.0 | 0.00 | 0.00 | 0.00 | 39 | 1020.7 |
| 20260903140743 | 71 | 132 | 0.0 | 2.0 | 0.00 | 0.00 | 0.00 | 41 | 1020.7 |
| 20260903140238 | 70 | 195 | 0.0 | 0.0 | 0.00 | 0.00 | 0.00 | 46 | 1020.6 |
| 20260903140025 | 70 | 199 | 0.0 | 0.0 | 0.00 | 0.00 | 0.00 | 43 | 1021.1 |
| 20260903135731 | 69 | 203 | 1.0 | 5.0 | 0.00 | 0.00 | 0.00 | 44 | 1020.6 |
| 20260903135224 | 69 | 203 | 1.0 | 5.0 | 0.00 | 0.00 | 0.00 | 42 | 1020.6 |
| 20260903134507 | 68 | 192 | 1.0 | 8.0 | 0.00 | 0.00 | 0.00 | 43 | 1021.0 |
| 20260903133706 | 67 | 359 | 0.0 | 2.0 | 0.00 | 0.00 | 0.00 | 49 | 1020.1 |
| 20260903133200 | 66 | 354 | 0.0 | 2.0 | 0.00 | 0.00 | 0.00 | 47 | 1020.1 |
| 20260903133017 | 65 | 344 | 0.0 | 1.0 | 0.00 | 0.00 | 0.00 | 44 | 1020.6 |
| 20260903132654 | 65 | 351 | 0.0 | 1.0 | 0.00 | 0.00 | 0.00 | 45 | 1019.9 |
| 20260903132148 | 64 | 317 | 0.0 | 0.0 | 0.00 | 0.00 | 0.00 | 48 | 1019.9 |
| 20260903131643 | 63 | 317 | 0.0 | 2.0 | 0.00 | 0.00 | 0.00 | 51 | 1019.8 |
| 20260903131522 | 62 | 309 | 0.0 | 2.0 | 0.00 | 0.00 | 0.00 | 47 | 1020.4 |
| 20260903131141 | 62 | 311 | 0.0 | 2.0 | 0.00 | 0.00 | 0.00 | 44 | 1019.9 |
| 20260903130137 | 62 | 334 | 0.0 | 3.0 | 0.00 | 0.00 | 0.00 | 44 | 1019.7 |
| 20260903130023 | 61 | 328 | 0.0 | 3.0 | 0.00 | 0.00 | 0.00 | 44 | 1020.2 |
| 20260903125633 | 62 | 334 | 0.0 | 3.0 | 0.00 | 0.00 | 0.00 | 43 | 1019.7 |
| 20260903125134 | 62 | 338 | 0.0 | 1.0 | 0.00 | 0.00 | 0.00 | 44 | 1019.6 |
| 20260903124630 | 62 | 338 | 0.0 | 1.0 | 0.00 | 0.00 | 0.00 | 42 | 1019.6 |
| 20260903124548 | 61 | 332 | 0.0 | 2.0 | 0.00 | 0.00 | 0.00 | 42 | 1020.1 |
| 20260903124130 | 62 | 338 | 0.0 | 2.0 | 0.00 | 0.00 | 0.00 | 45 | 1019.5 |
| 20260903123626 | 62 | 338 | 0.0 | 2.0 | 0.00 | 0.00 | 0.00 | 41 | 1019.6 |
| 20260903123126 | 63 | 330 | 0.0 | 1.0 | 0.00 | 0.00 | 0.00 | 41 | 1019.5 |
| 20260903123008 | 62 | 325 | 0.0 | 1.0 | 0.00 | 0.00 | 0.00 | 40 | 1020.0 |
| 20260903122626 | 63 | 333 | 0.0 | 3.0 | 0.00 | 0.00 | 0.00 | 40 | 1019.3 |
| 20260903121533 | 62 | 330 | 1.0 | 5.0 | 0.00 | 0.00 | 0.00 | 40 | 1019.8 |
| 20260903121127 | 61 | 330 | 0.0 | 3.0 | 0.00 | 0.00 | 0.00 | 42 | 1019.2 |
| 20260903120623 | 61 | 338 | 0.0 | 2.0 | 0.00 | 0.00 | 0.00 | 43 | 1019.2 |
| 20260903120120 | 60 | 353 | 0.0 | 3.0 | 0.00 | 0.00 | 0.00 | 43 | 1019.2 |
| 20260903120021 | 60 | 333 | 0.0 | 3.0 | 0.00 | 0.00 | 0.00 | 43 | 1019.7 |
| 20260903115622 | 60 | 341 | 0.0 | 3.0 | 0.00 | 0.00 | 0.00 | 44 | 1019.1 |
| 20260903115120 | 60 | 353 | 0.0 | 0.0 | 0.00 | 0.00 | 0.00 | 44 | 1019.1 |
| 20260903114617 | 60 | 353 | 0.0 | 4.0 | 0.00 | 0.00 | 0.00 | 45 | 1018.8 |
| 20260903114528 | 60 | 346 | 0.0 | 4.0 | 0.00 | 0.00 | 0.00 | 45 | 1019.5 |
| 20260903114117 | 60 | 353 | 0.0 | 4.0 | 0.00 | 0.00 | 0.00 | 43 | 1019.0 |
| 20260903113615 | 60 | 352 | 0.0 | 2.0 | 0.00 | 0.00 | 0.00 | 44 | 1019.0 |
| 20260903113117 | 61 | 352 | 0.0 | 2.0 | 0.00 | 0.00 | 0.00 | 44 | 1019.1 |
| 20260903113032 | 61 | 346 | 0.0 | 2.0 | 0.00 | 0.00 | 0.00 | 43 | 1019.7 |
| 20260903112618 | 62 | 334 | 0.0 | 3.0 | 0.00 | 0.00 | 0.00 | 42 | 1019.1 |
| 20260903112116 | 62 | 354 | 1.0 | 3.0 | 0.00 | 0.00 | 0.00 | 45 | 1019.0 |
| 20260903111615 | 63 | 329 | 2.0 | 5.0 | 0.00 | 0.00 | 0.00 | 40 | 1019.0 |
| 20260903111512 | 62 | 323 | 1.0 | 5.0 | 0.00 | 0.00 | 0.00 | 39 | 1019.7 |
| 20260903111116 | 62 | 321 | 2.0 | 5.0 | 0.00 | 0.00 | 0.00 | 40 | 1019.0 |
| 20260903110118 | 61 | 320 | 1.0 | 5.0 | 0.00 | 0.00 | 0.00 | 42 | 1019.0 |
| 20260903110017 | 61 | 327 | 0.0 | 3.0 | 0.00 | 0.00 | 0.00 | 44 | 1019.6 |
| 20260903105615 | 62 | 341 | 1.0 | 3.0 | 0.00 | 0.00 | 0.00 | 45 | 1019.0 |
| 20260903105111 | 62 | 334 | 0.0 | 3.0 | 0.00 | 0.00 | 0.00 | 41 | 1019.1 |
| 20260903104611 | 61 | 330 | 0.0 | 3.0 | 0.00 | 0.00 | 0.00 | 43 | 1019.0 |
| 20260903104530 | 61 | 355 | 0.0 | 1.0 | 0.00 | 0.00 | 0.00 | 41 | 1019.6 |
| 20260903104111 | 62 | 359 | 0.0 | 2.0 | 0.00 | 0.00 | 0.00 | 42 | 1019.0 |
| 20260903103611 | 62 | 328 | 0.0 | 2.0 | 0.00 | 0.00 | 0.00 | 41 | 1019.0 |
| 20260903103111 | 63 | 328 | 0.0 | 3.0 | 0.00 | 0.00 | 0.00 | 40 | 1018.8 |
| 20260903103027 | 62 | 33 | 0.0 | 3.0 | 0.00 | 0.00 | 0.00 | 39 | 1019.4 |
| 20260903102609 | 63 | 23 | 0.0 | 3.0 | 0.00 | 0.00 | 0.00 | 39 | 1018.7 |
| 20260903102110 | 64 | 129 | 0.0 | 1.0 | 0.00 | 0.00 | 0.00 | 39 | 1018.8 |
| 20260903101611 | 64 | 227 | 1.0 | 3.0 | 0.00 | 0.00 | 0.00 | 37 | 1018.8 |
| 20260903101536 | 64 | 225 | 0.0 | 3.0 | 0.00 | 0.00 | 0.00 | 37 | 1019.2 |
| 20260903101111 | 64 | 328 | 1.0 | 3.0 | 0.00 | 0.00 | 0.00 | 36 | 1018.7 |
| 20260903100022 | 63 | 278 | 0.0 | 3.0 | 0.00 | 0.00 | 0.00 | 37 | 1019.2 |
| 20260903095107 | 64 | 226 | 0.0 | 4.0 | 0.00 | 0.00 | 0.00 | 39 | 1018.8 |
| 20260903094607 | 65 | 174 | 0.0 | 3.0 | 0.00 | 0.00 | 0.00 | 39 | 1018.8 |
| 20260903094522 | 64 | 328 | 0.0 | 2.0 | 0.00 | 0.00 | 0.00 | 38 | 1019.3 |
| 20260903094105 | 65 | 266 | 0.0 | 2.0 | 0.00 | 0.00 | 0.00 | 37 | 1018.8 |
| 20260903093608 | 66 | 221 | 0.0 | 0.0 | 0.00 | 0.00 | 0.00 | 36 | 1018.8 |
| 20260903093106 | 67 | 221 | 0.0 | 1.0 | 0.00 | 0.00 | 0.00 | 36 | 1019.0 |
| 20260903093023 | 67 | 219 | 0.0 | 1.0 | 0.00 | 0.00 | 0.00 | 35 | 1019.3 |
| 20260903092104 | 68 | 281 | 1.0 | 4.0 | 0.00 | 0.00 | 0.00 | 34 | 1018.8 |
| 20260903091602 | 68 | 316 | 1.0 | 5.0 | 0.00 | 0.00 | 0.00 | 34 | 1019.0 |
| 20260903091537 | 68 | 248 | 0.0 | 7.0 | 0.00 | 0.00 | 0.00 | 33 | 1019.3 |
| 20260903090603 | 69 | 287 | 2.0 | 7.0 | 0.00 | 0.00 | 0.00 | 33 | 1018.6 |
| 20260903090034 | 68 | 313 | 2.0 | 6.0 | 0.00 | 0.00 | 0.00 | 34 | 1019.1 |
| 20260903085102 | 68 | 295 | 2.0 | 7.0 | 0.00 | 0.00 | 0.00 | 35 | 1018.6 |
| 20260903084601 | 68 | 275 | 2.0 | 6.0 | 0.00 | 0.00 | 0.00 | 36 | 1018.7 |
| 20260903084518 | 67 | 242 | 1.0 | 7.0 | 0.00 | 0.00 | 0.00 | 36 | 1019.2 |
| 20260903084102 | 67 | 292 | 2.0 | 6.0 | 0.00 | 0.00 | 0.00 | 37 | 1018.7 |
| 20260903083559 | 67 | 359 | 2.0 | 8.0 | 0.00 | 0.00 | 0.00 | 37 | 1018.8 |
| 20260903083101 | 67 | 343 | 2.0 | 8.0 | 0.00 | 0.00 | 0.00 | 39 | 1018.8 |
| 20260903083025 | 66 | 343 | 2.0 | 9.0 | 0.00 | 0.00 | 0.00 | 38 | 1019.2 |
| 20260903082558 | 66 | 328 | 2.0 | 4.0 | 0.00 | 0.00 | 0.00 | 39 | 1018.8 |
| 20260903082058 | 65 | 285 | 1.0 | 5.0 | 0.00 | 0.00 | 0.00 | 40 | 1018.8 |
| 20260903081559 | 64 | 326 | 1.0 | 5.0 | 0.00 | 0.00 | 0.00 | 42 | 1018.8 |
| 20260903081528 | 63 | 302 | 0.0 | 5.0 | 0.00 | 0.00 | 0.00 | 42 | 1019.2 |
| 20260903080558 | 62 | 348 | 0.0 | 3.0 | 0.00 | 0.00 | 0.00 | 51 | 1018.8 |
| 20260903080056 | 62 | 274 | 0.0 | 1.0 | 0.00 | 0.00 | 0.00 | 56 | 1018.8 |
| 20260903080033 | 61 | 24 | 0.0 | 1.0 | 0.00 | 0.00 | 0.00 | 55 | 1019.3 |
| 20260903075556 | 62 | 18 | 0.0 | 1.0 | 0.00 | 0.00 | 0.00 | 56 | 1018.8 |
| 20260903075055 | 62 | 349 | 0.0 | 1.0 | 0.00 | 0.00 | 0.00 | 55 | 1019.0 |
| 20260903074549 | 62 | 1 | 0.0 | 2.0 | 0.00 | 0.00 | 0.00 | 56 | 1019.1 |
| 20260903074533 | 62 | 5 | 0.0 | 2.0 | 0.00 | 0.00 | 0.00 | 55 | 1019.5 |
| 20260903074044 | 62 | 1 | 1.0 | 3.0 | 0.00 | 0.00 | 0.00 | 55 | 1019.1 |
| 20260903073538 | 63 | 290 | 0.0 | 3.0 | 0.00 | 0.00 | 0.00 | 55 | 1019.2 |
| 20260903073030 | 63 | 336 | 0.0 | 3.0 | 0.00 | 0.00 | 0.00 | 56 | 1019.1 |
| 20260903072526 | 63 | 336 | 0.0 | 4.0 | 0.00 | 0.00 | 0.00 | 55 | 1019.1 |
| 20260903072020 | 64 | 356 | 0.0 | 4.0 | 0.00 | 0.00 | 0.00 | 54 | 1019.1 |
| 20260903071528 | 63 | 331 | 0.0 | 3.0 | 0.00 | 0.00 | 0.00 | 54 | 1019.7 |
| 20260903071513 | 64 | 316 | 0.0 | 3.0 | 0.00 | 0.00 | 0.00 | 54 | 1019.1 |
| 20260903071007 | 64 | 331 | 1.0 | 6.0 | 0.00 | 0.00 | 0.00 | 53 | 1019.2 |
| 20260903070502 | 64 | 317 | 1.0 | 7.0 | 0.00 | 0.00 | 0.00 | 53 | 1019.1 |
| 20260903070030 | 64 | 323 | 1.0 | 8.0 | 0.00 | 0.00 | 0.00 | 52 | 1019.7 |
| 20260903065955 | 65 | 328 | 2.0 | 7.0 | 0.00 | 0.00 | 0.00 | 52 | 1019.2 |
| 20260903065449 | 65 | 346 | 2.0 | 9.0 | 0.00 | 0.00 | 0.00 | 52 | 1019.1 |
| 20260903064944 | 65 | 359 | 2.0 | 9.0 | 0.00 | 0.00 | 0.00 | 51 | 1019.2 |
| 20260903064534 | 65 | 333 | 1.0 | 9.0 | 0.00 | 0.00 | 0.00 | 51 | 1019.8 |
| 20260903064437 | 65 | 352 | 2.0 | 8.0 | 0.00 | 0.00 | 0.00 | 51 | 1019.2 |
| 20260903063931 | 65 | 96 | 2.0 | 8.0 | 0.00 | 0.00 | 0.00 | 51 | 1019.1 |
| 20260903063425 | 65 | 32 | 2.0 | 8.0 | 0.00 | 0.00 | 0.00 | 51 | 1019.1 |
| 20260903063035 | 65 | 320 | 3.0 | 9.0 | 0.00 | 0.00 | 0.00 | 50 | 1019.6 |
| 20260903062920 | 66 | 293 | 2.0 | 8.0 | 0.00 | 0.00 | 0.00 | 51 | 1019.2 |
| 20260903062414 | 66 | 358 | 2.0 | 8.0 | 0.00 | 0.00 | 0.00 | 51 | 1019.1 |
| 20260903061907 | 66 | 307 | 3.0 | 9.0 | 0.00 | 0.00 | 0.00 | 50 | 1019.1 |
| 20260903061525 | 66 | 286 | 1.0 | 11.0 | 0.00 | 0.00 | 0.00 | 49 | 1019.5 |
| 20260903061401 | 66 | 89 | 3.0 | 10.0 | 0.00 | 0.00 | 0.00 | 50 | 1019.1 |
| 20260903060856 | 66 | 319 | 2.0 | 10.0 | 0.00 | 0.00 | 0.00 | 49 | 1019.0 |
| 20260903060004 | 66 | 341 | 2.0 | 10.0 | 0.00 | 0.00 | 0.00 | 47 | 1019.5 |
| 20260903055843 | 67 | 356 | 3.0 | 10.0 | 0.00 | 0.00 | 0.00 | 48 | 1019.1 |
| 20260903055337 | 67 | 321 | 4.0 | 11.0 | 0.00 | 0.00 | 0.00 | 47 | 1019.2 |
| 20260903054831 | 67 | 327 | 4.0 | 11.0 | 0.00 | 0.00 | 0.00 | 47 | 1019.1 |
| 20260903054507 | 67 | 328 | 4.0 | 12.0 | 0.00 | 0.00 | 0.00 | 46 | 1019.8 |
| 20260903054325 | 67 | 340 | 4.0 | 11.0 | 0.00 | 0.00 | 0.00 | 47 | 1019.3 |
| 20260903053819 | 67 | 321 | 4.0 | 11.0 | 0.00 | 0.00 | 0.00 | 46 | 1019.3 |
| 20260903053014 | 67 | 317 | 2.0 | 12.0 | 0.00 | 0.00 | 0.00 | 45 | 1019.8 |
| 20260903051520 | 67 | 309 | 3.0 | 11.0 | 0.00 | 0.00 | 0.00 | 45 | 1020.1 |
| 20260903051250 | 68 | 274 | 2.0 | 10.0 | 0.00 | 0.00 | 0.00 | 45 | 1019.3 |
| 20260903050237 | 68 | 286 | 2.0 | 11.0 | 0.00 | 0.00 | 0.00 | 44 | 1019.0 |
| 20260903050029 | 68 | 277 | 3.0 | 12.0 | 0.00 | 0.00 | 0.00 | 44 | 1019.8 |
| 20260903045731 | 69 | 354 | 2.0 | 6.0 | 0.00 | 0.00 | 0.00 | 44 | 1019.1 |
| 20260903044718 | 69 | 288 | 2.0 | 7.0 | 0.00 | 0.00 | 0.00 | 42 | 1019.1 |
| 20260903044508 | 69 | 338 | 2.0 | 8.0 | 0.00 | 0.00 | 0.00 | 42 | 1019.9 |
| 20260903044218 | 69 | 305 | 1.0 | 5.0 | 0.00 | 0.00 | 0.00 | 42 | 1019.1 |
| 20260903043717 | 70 | 328 | 1.0 | 5.0 | 0.00 | 0.00 | 0.00 | 41 | 1019.0 |
| 20260903043219 | 70 | 345 | 1.0 | 4.0 | 0.00 | 0.00 | 0.00 | 40 | 1019.0 |
| 20260903043009 | 70 | 310 | 1.0 | 5.0 | 0.00 | 0.00 | 0.00 | 39 | 1019.7 |
| 20260903042716 | 71 | 333 | 2.0 | 5.0 | 0.00 | 0.00 | 0.00 | 39 | 1019.0 |
| 20260903042213 | 71 | 308 | 2.0 | 4.0 | 0.00 | 0.00 | 0.00 | 38 | 1019.1 |
| 20260903041714 | 71 | 321 | 1.0 | 4.0 | 0.00 | 0.00 | 0.00 | 38 | 1019.1 |
| 20260903041517 | 71 | 309 | 1.0 | 4.0 | 0.00 | 0.00 | 0.00 | 37 | 1019.9 |
| 20260903041214 | 71 | 336 | 1.0 | 3.0 | 0.00 | 0.00 | 0.00 | 38 | 1019.2 |
| 20260903040714 | 72 | 69 | 2.0 | 6.0 | 0.00 | 0.00 | 0.00 | 37 | 1019.3 |
| 20260903040211 | 73 | 41 | 2.0 | 7.0 | 0.00 | 0.00 | 0.00 | 35 | 1019.3 |
| 20260903040025 | 73 | 346 | 3.0 | 8.0 | 0.00 | 0.00 | 0.00 | 33 | 1020.1 |
| 20260903035710 | 73 | 319 | 2.0 | 7.0 | 0.00 | 0.00 | 0.00 | 33 | 1019.3 |
| 20260903035213 | 73 | 339 | 2.0 | 6.0 | 0.00 | 0.00 | 0.00 | 32 | 1019.2 |
| 20260903034711 | 72 | 243 | 1.0 | 6.0 | 0.00 | 0.00 | 0.00 | 32 | 1019.2 |
| 20260903034528 | 71 | 274 | 0.0 | 3.0 | 0.00 | 0.00 | 0.00 | 32 | 1020.1 |
| 20260903034214 | 72 | 284 | 1.0 | 3.0 | 0.00 | 0.00 | 0.00 | 33 | 1019.2 |
| 20260903033707 | 72 | 284 | 0.0 | 2.0 | 0.00 | 0.00 | 0.00 | 34 | 1019.1 |
| 20260903033208 | 72 | 284 | 0.0 | 1.0 | 0.00 | 0.00 | 0.00 | 34 | 1019.1 |
| 20260903033006 | 72 | 280 | 0.0 | 2.0 | 0.00 | 0.00 | 0.00 | 35 | 1019.9 |
| 20260903032707 | 73 | 258 | 0.0 | 2.0 | 0.00 | 0.00 | 0.00 | 32 | 1019.0 |
| 20260903031516 | 72 | 196 | 1.0 | 4.0 | 0.00 | 0.00 | 0.00 | 31 | 1019.7 |
| 20260903031208 | 73 | 181 | 1.0 | 8.0 | 0.00 | 0.00 | 0.00 | 32 | 1018.8 |
| 20260903030706 | 72 | 113 | 2.0 | 8.0 | 0.00 | 0.00 | 0.00 | 31 | 1018.8 |
| 20260903030207 | 72 | 193 | 1.0 | 6.0 | 0.00 | 0.00 | 0.00 | 32 | 1018.8 |
| 20260903030018 | 72 | 132 | 2.0 | 6.0 | 0.00 | 0.00 | 0.00 | 30 | 1019.7 |
| 20260903025708 | 72 | 204 | 1.0 | 6.0 | 0.00 | 0.00 | 0.00 | 31 | 1018.8 |
| 20260903024707 | 73 | 229 | 0.0 | 0.0 | 0.00 | 0.00 | 0.00 | 30 | 1018.8 |
| 20260903024524 | 73 | 226 | 0.0 | 0.0 | 0.00 | 0.00 | 0.00 | 31 | 1019.5 |
| 20260903024208 | 74 | 230 | 0.0 | 0.0 | 0.00 | 0.00 | 0.00 | 34 | 1018.8 |
| 20260903023708 | 74 | 230 | 0.0 | 0.0 | 0.00 | 0.00 | 0.00 | 29 | 1018.6 |
| 20260903023208 | 74 | 195 | 0.0 | 0.0 | 0.00 | 0.00 | 0.00 | 29 | 1018.5 |
| 20260903023035 | 74 | 194 | 0.0 | 0.0 | 0.00 | 0.00 | 0.00 | 28 | 1019.1 |
| 20260903022707 | 74 | 182 | 0.0 | 2.0 | 0.00 | 0.00 | 0.00 | 28 | 1018.5 |
| 20260903022206 | 75 | 120 | 1.0 | 4.0 | 0.00 | 0.00 | 0.00 | 28 | 1018.4 |
| 20260903021706 | 75 | 114 | 2.0 | 5.0 | 0.00 | 0.00 | 0.00 | 28 | 1018.2 |
| 20260903021510 | 74 | 124 | 2.0 | 6.0 | 0.00 | 0.00 | 0.00 | 27 | 1018.9 |
| 20260903021207 | 75 | 114 | 2.0 | 5.0 | 0.00 | 0.00 | 0.00 | 28 | 1018.1 |
| 20260903020709 | 75 | 152 | 1.0 | 4.0 | 0.00 | 0.00 | 0.00 | 28 | 1018.0 |
| 20260903020206 | 75 | 161 | 2.0 | 5.0 | 0.00 | 0.00 | 0.00 | 28 | 1018.1 |
| 20260903020033 | 75 | 126 | 1.0 | 6.0 | 0.00 | 0.00 | 0.00 | 27 | 1018.7 |
| 20260903015708 | 76 | 146 | 3.0 | 5.0 | 0.00 | 0.00 | 0.00 | 28 | 1018.0 |
| 20260903015208 | 76 | 177 | 3.0 | 5.0 | 0.00 | 0.00 | 0.00 | 27 | 1017.7 |
| 20260903014706 | 76 | 136 | 3.0 | 7.0 | 0.00 | 0.00 | 0.00 | 27 | 1017.7 |
| 20260903014525 | 76 | 134 | 2.0 | 8.0 | 0.00 | 0.00 | 0.00 | 26 | 1018.5 |
| 20260903014207 | 76 | 134 | 3.0 | 7.0 | 0.00 | 0.00 | 0.00 | 27 | 1017.9 |
| 20260903013707 | 77 | 175 | 3.0 | 6.0 | 0.00 | 0.00 | 0.00 | 27 | 1017.9 |
| 20260903013205 | 77 | 125 | 2.0 | 4.0 | 0.00 | 0.00 | 0.00 | 26 | 1017.9 |
| 20260903013029 | 77 | 195 | 1.0 | 6.0 | 0.00 | 0.00 | 0.00 | 26 | 1018.5 |
| 20260903011654 | 78 | 142 | 4.0 | 9.0 | 0.00 | 0.00 | 0.00 | 25 | 1018.0 |
| 20260903011532 | 78 | 136 | 3.0 | 11.0 | 0.00 | 0.00 | 0.00 | 25 | 1018.7 |
| 20260903010136 | 79 | 205 | 4.0 | 10.0 | 0.00 | 0.00 | 0.00 | 25 | 1017.9 |
| 20260903010014 | 79 | 136 | 3.0 | 12.0 | 0.00 | 0.00 | 0.00 | 24 | 1018.6 |
| 20260903005630 | 79 | 111 | 4.0 | 10.0 | 0.00 | 0.00 | 0.00 | 25 | 1018.0 |
| 20260903005124 | 79 | 126 | 4.0 | 9.0 | 0.00 | 0.00 | 0.00 | 25 | 1018.0 |
| 20260903004620 | 80 | 193 | 4.0 | 9.0 | 0.00 | 0.00 | 0.00 | 25 | 1018.0 |
| 20260903004518 | 79 | 159 | 5.0 | 10.0 | 0.00 | 0.00 | 0.00 | 24 | 1018.7 |
| 20260903004112 | 80 | 164 | 4.0 | 9.0 | 0.00 | 0.00 | 0.00 | 25 | 1017.9 |
| 20260903003607 | 80 | 137 | 4.0 | 10.0 | 0.00 | 0.00 | 0.00 | 25 | 1017.9 |
| 20260903003105 | 80 | 188 | 4.0 | 10.0 | 0.00 | 0.00 | 0.00 | 25 | 1017.9 |
| 20260903003030 | 80 | 206 | 4.0 | 11.0 | 0.00 | 0.00 | 0.00 | 24 | 1018.4 |
| 20260903002604 | 80 | 82 | 4.0 | 9.0 | 0.00 | 0.00 | 0.00 | 24 | 1017.9 |
| 20260903002106 | 80 | 85 | 4.0 | 8.0 | 0.00 | 0.00 | 0.00 | 25 | 1017.7 |
| 20260903001604 | 80 | 169 | 3.0 | 8.0 | 0.00 | 0.00 | 0.00 | 23 | 1017.6 |
| 20260903001530 | 80 | 147 | 4.0 | 9.0 | 0.00 | 0.00 | 0.00 | 22 | 1018.2 |
| 20260903000602 | 80 | 204 | 2.0 | 6.0 | 0.00 | 0.00 | 0.00 | 23 | 1017.7 |
| 20260903000040 | 80 | 175 | 2.0 | 14.0 | 0.00 | 0.00 | 0.00 | 22 | 1018.4 |
| 20260902235600 | 81 | 126 | 3.0 | 11.0 | 0.00 | 0.00 | 0.00 | 23 | 1017.9 |
| 20260902235059 | 81 | 165 | 3.0 | 11.0 | 0.00 | 0.00 | 0.00 | 23 | 1017.7 |
| 20260902234558 | 81 | 150 | 3.0 | 8.0 | 0.00 | 0.00 | 0.00 | 23 | 1017.7 |
| 20260902234518 | 81 | 226 | 3.0 | 9.0 | 0.00 | 0.00 | 0.00 | 22 | 1018.5 |
| 20260902234058 | 82 | 223 | 2.0 | 8.0 | 0.00 | 0.00 | 0.00 | 24 | 1017.9 |
| 20260902233558 | 82 | 95 | 2.0 | 8.0 | 0.00 | 0.00 | 0.00 | 22 | 1017.7 |
| 20260902233056 | 82 | 169 | 2.0 | 10.0 | 0.00 | 0.00 | 0.00 | 22 | 1017.7 |
| 20260902233027 | 82 | 252 | 2.0 | 10.0 | 0.00 | 0.00 | 0.00 | 22 | 1018.4 |
| 20260902232557 | 82 | 179 | 4.0 | 10.0 | 0.00 | 0.00 | 0.00 | 23 | 1017.7 |
| 20260902231558 | 83 | 98 | 3.0 | 9.0 | 0.00 | 0.00 | 0.00 | 23 | 1017.7 |
| 20260902231529 | 83 | 106 | 3.0 | 10.0 | 0.00 | 0.00 | 0.00 | 23 | 1018.4 |
| 20260902231057 | 84 | 149 | 2.0 | 9.0 | 0.00 | 0.00 | 0.00 | 22 | 1017.9 |
| 20260902230551 | 84 | 156 | 4.0 | 11.0 | 0.00 | 0.00 | 0.00 | 22 | 1017.9 |
| 20260902230043 | 83 | 2 | 5.0 | 12.0 | 0.00 | 0.00 | 0.00 | 22 | 1018.1 |
| 20260902230032 | 83 | 167 | 5.0 | 13.0 | 0.00 | 0.00 | 0.00 | 21 | 1018.6 |
| 20260902225537 | 83 | 144 | 4.0 | 12.0 | 0.00 | 0.00 | 0.00 | 23 | 1017.9 |
| 20260902225031 | 83 | 103 | 4.0 | 11.0 | 0.00 | 0.00 | 0.00 | 23 | 1018.0 |
| 20260902224516 | 83 | 126 | 3.0 | 12.0 | 0.00 | 0.00 | 0.00 | 21 | 1018.6 |
| 20260902224019 | 84 | 221 | 4.0 | 11.0 | 0.00 | 0.00 | 0.00 | 24 | 1018.0 |
| 20260902223514 | 84 | 137 | 5.0 | 13.0 | 0.00 | 0.00 | 0.00 | 23 | 1018.1 |
| 20260902223042 | 84 | 139 | 5.0 | 14.0 | 0.00 | 0.00 | 0.00 | 23 | 1018.8 |
| 20260902223007 | 85 | 137 | 5.0 | 13.0 | 0.00 | 0.00 | 0.00 | 23 | 1018.1 |
| 20260902222501 | 85 | 190 | 4.0 | 14.0 | 0.00 | 0.00 | 0.00 | 22 | 1018.1 |
| 20260902221954 | 84 | 181 | 4.0 | 14.0 | 0.00 | 0.00 | 0.00 | 23 | 1018.1 |
| 20260902221528 | 84 | 103 | 3.0 | 11.0 | 0.00 | 0.00 | 0.00 | 22 | 1018.9 |
| 20260902220944 | 84 | 143 | 2.0 | 9.0 | 0.00 | 0.00 | 0.00 | 26 | 1018.2 |
| 20260902220437 | 85 | 97 | 2.0 | 7.0 | 0.00 | 0.00 | 0.00 | 23 | 1018.4 |
| 20260902220032 | 84 | 76 | 1.0 | 9.0 | 0.00 | 0.00 | 0.00 | 24 | 1018.9 |
| 20260902214918 | 85 | 68 | 4.0 | 12.0 | 0.00 | 0.00 | 0.00 | 23 | 1018.4 |
| 20260902214535 | 84 | 173 | 4.0 | 9.0 | 0.00 | 0.00 | 0.00 | 23 | 1019.2 |
| 20260902213907 | 84 | 158 | 3.0 | 8.0 | 0.00 | 0.00 | 0.00 | 23 | 1018.6 |
| 20260902213401 | 84 | 171 | 3.0 | 8.0 | 0.00 | 0.00 | 0.00 | 24 | 1018.7 |
| 20260902213016 | 83 | 201 | 1.0 | 9.0 | 0.00 | 0.00 | 0.00 | 22 | 1019.4 |
| 20260902212855 | 84 | 139 | 3.0 | 8.0 | 0.00 | 0.00 | 0.00 | 25 | 1018.7 |
| 20260902212350 | 84 | 162 | 2.0 | 8.0 | 0.00 | 0.00 | 0.00 | 24 | 1018.7 |
| 20260902211850 | 84 | 217 | 3.0 | 10.0 | 0.00 | 0.00 | 0.00 | 24 | 1018.8 |
| 20260902211526 | 83 | 206 | 1.0 | 11.0 | 0.00 | 0.00 | 0.00 | 25 | 1019.6 |
| 20260902211350 | 84 | 63 | 4.0 | 10.0 | 0.00 | 0.00 | 0.00 | 25 | 1018.8 |
| 20260902210851 | 84 | 148 | 3.0 | 10.0 | 0.00 | 0.00 | 0.00 | 25 | 1018.8 |
| 20260902210030 | 85 | 18 | 2.0 | 8.0 | 0.00 | 0.00 | 0.00 | 22 | 1019.6 |
| 20260902205852 | 85 | 319 | 2.0 | 7.0 | 0.00 | 0.00 | 0.00 | 23 | 1019.2 |
| 20260902205352 | 86 | 103 | 2.0 | 7.0 | 0.00 | 0.00 | 0.00 | 24 | 1019.1 |
| 20260902204851 | 85 | 179 | 4.0 | 10.0 | 0.00 | 0.00 | 0.00 | 23 | 1019.2 |
| 20260902204544 | 85 | 190 | 3.0 | 12.0 | 0.00 | 0.00 | 0.00 | 23 | 1019.9 |
| 20260902204350 | 85 | 185 | 4.0 | 10.0 | 0.00 | 0.00 | 0.00 | 23 | 1019.3 |
| 20260902203851 | 85 | 103 | 3.0 | 7.0 | 0.00 | 0.00 | 0.00 | 25 | 1019.5 |
| 20260902203352 | 84 | 138 | 3.0 | 6.0 | 0.00 | 0.00 | 0.00 | 25 | 1019.6 |
| 20260902203033 | 84 | 206 | 2.0 | 11.0 | 0.00 | 0.00 | 0.00 | 24 | 1020.2 |
| 20260902202851 | 84 | 124 | 4.0 | 10.0 | 0.00 | 0.00 | 0.00 | 24 | 1019.7 |
| 20260902202352 | 83 | 139 | 4.0 | 10.0 | 0.00 | 0.00 | 0.00 | 26 | 1019.8 |
| 20260902201850 | 83 | 148 | 2.0 | 7.0 | 0.00 | 0.00 | 0.00 | 27 | 1019.7 |
| 20260902201521 | 82 | 173 | 2.0 | 10.0 | 0.00 | 0.00 | 0.00 | 26 | 1020.5 |
| 20260902200852 | 82 | 117 | 3.0 | 9.0 | 0.00 | 0.00 | 0.00 | 26 | 1019.9 |
| 20260902200351 | 84 | 148 | 2.0 | 9.0 | 0.00 | 0.00 | 0.00 | 24 | 1019.9 |
| 20260902200027 | 84 | 150 | 0.0 | 11.0 | 0.00 | 0.00 | 0.00 | 22 | 1020.7 |
| 20260902195845 | 85 | 156 | 3.0 | 11.0 | 0.00 | 0.00 | 0.00 | 23 | 1019.9 |
| 20260902195339 | 84 | 227 | 3.0 | 11.0 | 0.00 | 0.00 | 0.00 | 26 | 1020.1 |
| 20260902194835 | 84 | 140 | 2.0 | 9.0 | 0.00 | 0.00 | 0.00 | 24 | 1020.2 |
| 20260902194532 | 83 | 192 | 2.0 | 6.0 | 0.00 | 0.00 | 0.00 | 26 | 1020.9 |
| 20260902194327 | 84 | 193 | 2.0 | 7.0 | 0.00 | 0.00 | 0.00 | 27 | 1020.1 |
| 20260902193821 | 83 | 129 | 2.0 | 7.0 | 0.00 | 0.00 | 0.00 | 26 | 1020.2 |
| 20260902193034 | 82 | 174 | 1.0 | 9.0 | 0.00 | 0.00 | 0.00 | 26 | 1021.0 |
| 20260902192811 | 83 | 136 | 4.0 | 9.0 | 0.00 | 0.00 | 0.00 | 24 | 1020.3 |
| 20260902192307 | 82 | 153 | 4.0 | 9.0 | 0.00 | 0.00 | 0.00 | 27 | 1020.4 |
| 20260902191804 | 82 | 105 | 4.0 | 8.0 | 0.00 | 0.00 | 0.00 | 26 | 1020.4 |
| 20260902191532 | 82 | 154 | 5.0 | 9.0 | 0.00 | 0.00 | 0.00 | 26 | 1021.3 |
| 20260902190804 | 80 | 163 | 2.0 | 7.0 | 0.00 | 0.00 | 0.00 | 27 | 1020.6 |
| 20260902190302 | 79 | 319 | 1.0 | 4.0 | 0.00 | 0.00 | 0.00 | 28 | 1020.7 |
| 20260902190023 | 79 | 310 | 1.0 | 7.0 | 0.00 | 0.00 | 0.00 | 26 | 1021.6 |
| 20260902185804 | 79 | 220 | 2.0 | 6.0 | 0.00 | 0.00 | 0.00 | 27 | 1020.8 |
| 20260902185306 | 79 | 117 | 2.0 | 6.0 | 0.00 | 0.00 | 0.00 | 27 | 1020.8 |
| 20260902184803 | 80 | 62 | 1.0 | 4.0 | 0.00 | 0.00 | 0.00 | 28 | 1020.8 |
| 20260902184534 | 80 | 54 | 0.0 | 4.0 | 0.00 | 0.00 | 0.00 | 27 | 1021.6 |
| 20260902184301 | 81 | 77 | 2.0 | 4.0 | 0.00 | 0.00 | 0.00 | 25 | 1020.9 |
| 20260902183258 | 83 | 317 | 2.0 | 9.0 | 0.00 | 0.00 | 0.00 | 25 | 1021.2 |
| 20260902183051 | 83 | 282 | 3.0 | 9.0 | 0.00 | 0.00 | 0.00 | 24 | 1021.8 |
| 20260902181758 | 83 | 257 | 2.0 | 5.0 | 0.00 | 0.00 | 0.00 | 25 | 1021.2 |
| 20260902181538 | 82 | 55 | 1.0 | 9.0 | 0.00 | 0.00 | 0.00 | 24 | 1021.9 |
| 20260902181258 | 83 | 169 | 3.0 | 8.0 | 0.00 | 0.00 | 0.00 | 26 | 1021.4 |
| 20260902180800 | 83 | 163 | 4.0 | 9.0 | 0.00 | 0.00 | 0.00 | 24 | 1021.4 |
| 20260902180259 | 83 | 179 | 3.0 | 9.0 | 0.00 | 0.00 | 0.00 | 24 | 1021.4 |
| 20260902180024 | 82 | 143 | 4.0 | 10.0 | 0.00 | 0.00 | 0.00 | 24 | 1022.2 |
| 20260902175800 | 83 | 317 | 4.0 | 9.0 | 0.00 | 0.00 | 0.00 | 25 | 1021.4 |
| 20260902175254 | 83 | 170 | 4.0 | 10.0 | 0.00 | 0.00 | 0.00 | 25 | 1021.5 |
| 20260902174748 | 83 | 172 | 2.0 | 10.0 | 0.00 | 0.00 | 0.00 | 26 | 1021.4 |
| 20260902174528 | 82 | 137 | 3.0 | 7.0 | 0.00 | 0.00 | 0.00 | 25 | 1022.4 |
| 20260902173736 | 82 | 56 | 2.0 | 6.0 | 0.00 | 0.00 | 0.00 | 28 | 1021.5 |
| 20260902173230 | 81 | 223 | 2.0 | 5.0 | 0.00 | 0.00 | 0.00 | 25 | 1021.5 |
| 20260902173005 | 80 | 258 | 1.0 | 6.0 | 0.00 | 0.00 | 0.00 | 26 | 1022.4 |
| 20260902172724 | 81 | 279 | 2.0 | 5.0 | 0.00 | 0.00 | 0.00 | 26 | 1021.5 |
| 20260902172218 | 82 | 264 | 2.0 | 5.0 | 0.00 | 0.00 | 0.00 | 27 | 1021.7 |
| 20260902171712 | 82 | 281 | 2.0 | 7.0 | 0.00 | 0.00 | 0.00 | 26 | 1021.8 |
| 20260902171512 | 81 | 29 | 0.0 | 9.0 | 0.00 | 0.00 | 0.00 | 26 | 1022.7 |
| 20260902170700 | 80 | 212 | 2.0 | 8.0 | 0.00 | 0.00 | 0.00 | 27 | 1021.9 |
| 20260902170154 | 80 | 278 | 3.0 | 10.0 | 0.00 | 0.00 | 0.00 | 27 | 1021.9 |
| 20260902170016 | 79 | 302 | 2.0 | 11.0 | 0.00 | 0.00 | 0.00 | 26 | 1022.7 |
| 20260902164637 | 81 | 0 | 2.0 | 8.0 | 0.00 | 0.00 | 0.00 | 29 | 1022.0 |
| 20260902164530 | 80 | 53 | 1.0 | 9.0 | 0.00 | 0.00 | 0.00 | 27 | 1022.8 |
| 20260902163624 | 80 | 236 | 3.0 | 11.0 | 0.00 | 0.00 | 0.00 | 26 | 1022.0 |
| 20260902163119 | 79 | 274 | 2.0 | 8.0 | 0.00 | 0.00 | 0.00 | 27 | 1022.0 |
| 20260902163031 | 79 | 269 | 2.0 | 6.0 | 0.00 | 0.00 | 0.00 | 27 | 1022.8 |
| 20260902162613 | 79 | 63 | 3.0 | 10.0 | 0.00 | 0.00 | 0.00 | 29 | 1022.0 |
| 20260902162107 | 78 | 160 | 4.0 | 11.0 | 0.00 | 0.00 | 0.00 | 28 | 1022.0 |
| 20260902161600 | 78 | 274 | 4.0 | 13.0 | 0.00 | 0.00 | 0.00 | 27 | 1022.1 |
| 20260902161508 | 78 | 281 | 2.0 | 14.0 | 0.00 | 0.00 | 0.00 | 27 | 1022.8 |
| 20260902161054 | 79 | 260 | 4.0 | 13.0 | 0.00 | 0.00 | 0.00 | 26 | 1022.1 |
| 20260902160550 | 79 | 302 | 3.0 | 8.0 | 0.00 | 0.00 | 0.00 | 29 | 1022.1 |
| 20260902160042 | 79 | 257 | 3.0 | 8.0 | 0.00 | 0.00 | 0.00 | 28 | 1022.3 |
| 20260902160017 | 79 | 148 | 2.0 | 9.0 | 0.00 | 0.00 | 0.00 | 27 | 1022.7 |
| 20260902155537 | 79 | 351 | 3.0 | 8.0 | 0.00 | 0.00 | 0.00 | 27 | 1022.3 |
| 20260902155030 | 79 | 271 | 2.0 | 8.0 | 0.00 | 0.00 | 0.00 | 27 | 1022.0 |
| 20260902154525 | 78 | 275 | 2.0 | 7.0 | 0.00 | 0.00 | 0.00 | 28 | 1022.6 |